When you browse on this site, cookies collect data to enhance your experience and personalize the content and advertising you see.
Visit our Privacy Policy to learn more. By continuing to use the site, you agree to this use of cookies and data.
  • In Romania
  • List of Countries
  • For 7 days
  • Water Temperature
  • Satellite Maps
  • Weather Map
  • Weather Widgets
  • user-avatar
    Login

    Hourly Weather Arnay-le-Duc

    Today, 25 April, Thursday

    Time Temperature Precipitation Wind Pressure Humidity
    00:00 +9°C° 0 mm 3 mps 719 mmHg 61%
    01:00 +9°C° 0.1 mm 3 mps 719 mmHg 68%
    02:00 +9°C° 0.1 mm 3 mps 718 mmHg 75%
    03:00 +9°C° 0.1 mm 3 mps 718 mmHg 83%
    04:00 +8°C° 0.1 mm 4 mps 718 mmHg 80%
    05:00 +10°C° 0.1 mm 4 mps 718 mmHg 78%
    06:00 +10°C° 0 mm 3 mps 718 mmHg 77%
    07:00 +11°C° 0.4 mm 4 mps 718 mmHg 75%
    08:00 +12°C° 0.4 mm 5 mps 719 mmHg 73%
    09:00 +13°C° 0.4 mm 6 mps 719 mmHg 70%
    10:00 +12°C° 2.1 mm 5 mps 719 mmHg 79%
    11:00 +11°C° 2.1 mm 4 mps 719 mmHg 87%
    12:00 +10°C° 2.1 mm 4 mps 719 mmHg 96%
    13:00 +9°C° 1.9 mm 3 mps 720 mmHg 96%
    14:00 +9°C° 1.9 mm 3 mps 720 mmHg 96%
    15:00 +8°C° 1.9 mm 2 mps 720 mmHg 96%
    16:00 +8°C° 0.9 mm 2 mps 720 mmHg 96%
    17:00 +8°C° 0.9 mm 2 mps 721 mmHg 97%
    18:00 +8°C° 0.9 mm 1 mps 721 mmHg 98%
    19:00 +8°C° 1 mm 1 mps 722 mmHg 98%
    20:00 +7°C° 1 mm 2 mps 723 mmHg 98%
    21:00 +6°C° 1 mm 2 mps 723 mmHg 98%
    22:00 +6°C° 0.1 mm 2 mps 724 mmHg 98%
    23:00 +6°C° 0.1 mm 2 mps 724 mmHg 98%

    Tomorrow, 26 April, Friday

    Time Temperature Precipitation Wind Pressure Humidity
    00:00 +6°C° 0.1 mm 2 mps 724 mmHg 98%
    01:00 +5°C° 0 mm 2 mps 724 mmHg 98%
    02:00 +6°C° 0 mm 1 mps 724 mmHg 98%
    03:00 +6°C° 0 mm 1 mps 724 mmHg 98%
    04:00 +6°C° 0 mm 1 mps 725 mmHg 98%
    05:00 +6°C° 0 mm 1 mps 725 mmHg 97%
    06:00 +6°C° 0 mm 1 mps 725 mmHg 97%
    07:00 +7°C° 0 mm 2 mps 726 mmHg 92%
    08:00 +8°C° 0 mm 2 mps 727 mmHg 88%
    09:00 +10°C° 0 mm 2 mps 727 mmHg 83%
    10:00 +12°C° 0.5 mm 2 mps 727 mmHg 79%
    11:00 +13°C° 0.5 mm 1 mps 728 mmHg 74%
    12:00 +14°C° 0.5 mm 1 mps 728 mmHg 70%
    13:00 +14°C° 0.4 mm 1 mps 728 mmHg 71%
    14:00 +14°C° 0.4 mm 2 mps 728 mmHg 71%
    15:00 +14°C° 0.4 mm 2 mps 728 mmHg 72%
    16:00 +13°C° 0.5 mm 2 mps 728 mmHg 78%
    17:00 +12°C° 0.5 mm 2 mps 728 mmHg 85%
    18:00 +10°C° 0.5 mm 2 mps 728 mmHg 92%
    19:00 +9°C° 0.1 mm 2 mps 729 mmHg 93%
    20:00 +8°C° 0.1 mm 2 mps 729 mmHg 94%
    21:00 +7°C° 0.1 mm 3 mps 730 mmHg 96%
    22:00 +7°C° 0.1 mm 3 mps 730 mmHg 95%
    23:00 +6°C° 0.1 mm 4 mps 730 mmHg 95%

    Day after tomorrow, 27 April, Saturday

    Time Temperature Precipitation Wind Pressure Humidity
    00:00 +6°C° 0.1 mm 4 mps 731 mmHg 95%
    01:00 +6°C° 0 mm 4 mps 730 mmHg 94%
    02:00 +5°C° 0 mm 4 mps 730 mmHg 94%
    03:00 +4°C° 0 mm 4 mps 730 mmHg 93%
    04:00 +4°C° 0.1 mm 4 mps 730 mmHg 94%
    05:00 +5°C° 0.1 mm 4 mps 730 mmHg 94%
    06:00 +5°C° 0.1 mm 4 mps 730 mmHg 95%
    07:00 +5°C° 0.1 mm 4 mps 730 mmHg 93%
    08:00 +6°C° 0.1 mm 4 mps 730 mmHg 91%
    09:00 +7°C° 0.1 mm 5 mps 730 mmHg 90%
    10:00 +8°C° 0.3 mm 5 mps 730 mmHg 85%
    11:00 +8°C° 0.3 mm 6 mps 730 mmHg 80%
    12:00 +9°C° 0.3 mm 6 mps 730 mmHg 75%
    13:00 +8°C° 0.2 mm 6 mps 730 mmHg 74%
    14:00 +8°C° 0.2 mm 6 mps 730 mmHg 73%
    15:00 +8°C° 0.2 mm 5 mps 731 mmHg 72%
    16:00 +7°C° 0.3 mm 4 mps 731 mmHg 78%
    17:00 +6°C° 0.3 mm 4 mps 731 mmHg 84%
    18:00 +7°C° 0.3 mm 3 mps 731 mmHg 91%
    19:00 +5°C° 0.2 mm 3 mps 732 mmHg 92%
    20:00 +5°C° 0.2 mm 2 mps 732 mmHg 94%
    21:00 +4°C° 0.2 mm 2 mps 732 mmHg 95%
    22:00 +4°C° 0.1 mm 2 mps 732 mmHg 95%
    23:00 +4°C° 0.1 mm 2 mps 732 mmHg 95%

    28 April, Sunday

    Time Temperature Precipitation Wind Pressure Humidity
    00:00 +3°C° 0.1 mm 3 mps 732 mmHg 95%
    01:00 +3°C° 0.1 mm 3 mps 732 mmHg 95%
    02:00 +3°C° 0.1 mm 3 mps 731 mmHg 96%
    03:00 +3°C° 0.1 mm 3 mps 731 mmHg 96%
    04:00 +3°C° 0 mm 3 mps 731 mmHg 96%
    05:00 +3°C° 0 mm 3 mps 731 mmHg 96%
    06:00 +3°C° 0 mm 3 mps 731 mmHg 96%
    07:00 +3°C° 0.2 mm 3 mps 731 mmHg 95%
    08:00 +4°C° 0.2 mm 4 mps 731 mmHg 94%
    09:00 +4°C° 0.2 mm 4 mps 731 mmHg 93%
    10:00 +5°C° 0.5 mm 4 mps 730 mmHg 92%
    11:00 +5°C° 0.5 mm 4 mps 730 mmHg 92%
    12:00 +6°C° 0.5 mm 5 mps 730 mmHg 91%
    13:00 +6°C° 0.3 mm 4 mps 730 mmHg 91%
    14:00 +6°C° 0.3 mm 4 mps 730 mmHg 91%
    15:00 +6°C° 0.3 mm 4 mps 730 mmHg 91%
    16:00 +6°C° 0.3 mm 4 mps 729 mmHg 92%
    17:00 +7°C° 0.3 mm 3 mps 729 mmHg 93%
    18:00 +7°C° 0.3 mm 3 mps 729 mmHg 94%
    19:00 +5°C° 0.1 mm 3 mps 729 mmHg 95%
    20:00 +5°C° 0.1 mm 3 mps 730 mmHg 96%
    21:00 +4°C° 0.1 mm 3 mps 730 mmHg 97%
    22:00 +4°C° 0.1 mm 3 mps 730 mmHg 97%
    23:00 +4°C° 0.1 mm 3 mps 730 mmHg 97%

    29 April, Monday

    Time Temperature Precipitation Wind Pressure Humidity
    00:00 +4°C° 0.1 mm 3 mps 730 mmHg 98%
    01:00 +5°C° 0 mm 2 mps 730 mmHg 98%
    02:00 +5°C° 0 mm 2 mps 730 mmHg 98%
    03:00 +5°C° 0 mm 2 mps 730 mmHg 98%
    04:00 +5°C° 0 mm 2 mps 730 mmHg 97%
    05:00 +5°C° 0 mm 2 mps 730 mmHg 96%
    06:00 +5°C° 0 mm 2 mps 730 mmHg 95%
    07:00 +6°C° 0 mm 2 mps 730 mmHg 92%
    08:00 +6°C° 0 mm 2 mps 731 mmHg 89%
    09:00 +7°C° 0 mm 2 mps 731 mmHg 86%
    10:00 +7°C° 0 mm 2 mps 731 mmHg 83%
    11:00 +8°C° 0 mm 2 mps 730 mmHg 79%
    12:00 +9°C° 0 mm 2 mps 730 mmHg 75%
    13:00 +9°C° 0.1 mm 2 mps 730 mmHg 73%
    14:00 +10°C° 0.1 mm 2 mps 730 mmHg 71%
    15:00 +12°C° 0.1 mm 2 mps 730 mmHg 69%
    16:00 +10°C° 0.1 mm 2 mps 730 mmHg 74%
    17:00 +10°C° 0.1 mm 2 mps 729 mmHg 80%
    18:00 +10°C° 0.1 mm 1 mps 729 mmHg 85%
    19:00 +9°C° 0.1 mm 1 mps 729 mmHg 88%
    20:00 +8°C° 0.1 mm 1 mps 730 mmHg 90%
    21:00 +8°C° 0.1 mm 1 mps 730 mmHg 93%
    22:00 +7°C° 0 mm 1 mps 730 mmHg 94%
    23:00 +7°C° 0 mm 1 mps 729 mmHg 94%

    30 April, Tuesday

    Time Temperature Precipitation Wind Pressure Humidity
    00:00 +5°C° 0 mm 2 mps 729 mmHg 95%
    01:00 +5°C° 0 mm 2 mps 729 mmHg 94%
    02:00 +4°C° 0 mm 2 mps 729 mmHg 94%
    03:00 +4°C° 0 mm 2 mps 728 mmHg 93%
    04:00 +5°C° 0 mm 2 mps 728 mmHg 92%
    05:00 +5°C° 0 mm 2 mps 728 mmHg 90%
    06:00 +6°C° 0 mm 2 mps 728 mmHg 88%
    07:00 +8°C° 0 mm 2 mps 728 mmHg 79%
    08:00 +12°C° 0 mm 2 mps 728 mmHg 71%
    09:00 +13°C° 0 mm 3 mps 728 mmHg 62%
    10:00 +13°C° 0.1 mm 3 mps 727 mmHg 62%
    11:00 +14°C° 0.1 mm 3 mps 727 mmHg 62%
    12:00 +16°C° 0.1 mm 3 mps 727 mmHg 62%
    13:00 +14°C° 0.4 mm 3 mps 726 mmHg 68%
    14:00 +14°C° 0.4 mm 3 mps 726 mmHg 74%
    15:00 +13°C° 0.4 mm 4 mps 725 mmHg 80%
    16:00 +13°C° 0.1 mm 3 mps 725 mmHg 83%
    17:00 +12°C° 0.1 mm 3 mps 725 mmHg 86%
    18:00 +13°C° 0.1 mm 2 mps 725 mmHg 89%
    19:00 +10°C° 0 mm 2 mps 725 mmHg 92%
    20:00 +9°C° 0 mm 2 mps 726 mmHg 95%
    21:00 +8°C° 0 mm 2 mps 726 mmHg 97%
    22:00 +8°C° 0 mm 2 mps 726 mmHg 97%
    23:00 +7°C° 0 mm 2 mps 726 mmHg 98%
    Show more